Location: Unspecified
(0.0000°N, 0.0000°E)
Time: 10:08:59
(UTC+00:00)

Vanguard 2 - Pass Details

Date: 14 December 2017
Orbit: 552 x 2940 km, 32.9° (Epoch: 17 January)

Event Time Altitude Azimuth Distance (km) Brightness Sun altitude
Exits shadow 01:55:35 24° 185° (S) 3,098 10.6 -52.5°
Drops below altitude 10° 02:03:27 10° 150° (SSE) 4,791 12.0 -51.0°
Sets 02:09:05 0° 139° (SE) 6,196 12.8 -49.9°
